�������C�����ː����j�^�v���󋵏��
Date,Time,Cs137(Bq/L),Cs134(Bq/L),�S��(Bq/L)
2020/02/18,00:00,0.060,ND,25
2020/02/18,00:10,0.081,ND,33
2020/02/18,00:20,0.082,ND,34
2020/02/18,00:30,0.091,ND,31
2020/02/18,00:40,0.091,ND,30
2020/02/18,00:50,0.10,ND,30
2020/02/18,01:00,0.10,ND,30
2020/02/18,01:10,0.097,ND,26
2020/02/18,01:20,0.091,ND,27
2020/02/18,01:30,0.11,ND,29
2020/02/18,01:40,0.093,ND,27
2020/02/18,01:50,0.090,ND,24
2020/02/18,02:00,0.082,ND,25
2020/02/18,02:10,0.093,ND,25
2020/02/18,02:20,0.098,ND,23
2020/02/18,02:30,0.089,ND,23
2020/02/18,02:40,0.097,ND,25
2020/02/18,02:50,0.094,ND,28
2020/02/18,03:00,0.12,ND,27
2020/02/18,03:10,0.14,ND,27
2020/02/18,03:20,0.15,ND,28
2020/02/18,03:30,0.13,ND,30
2020/02/18,03:40,0.17,ND,33
2020/02/18,03:50,0.12,ND,32
2020/02/18,04:00,0.10,ND,32
2020/02/18,04:10,0.11,ND,33
2020/02/18,04:20,0.086,ND,33
2020/02/18,04:30,0.067,ND,34
2020/02/18,04:40,0.079,ND,32
2020/02/18,04:50,0.088,ND,31
2020/02/18,05:00,0.092,ND,31
2020/02/18,05:10,0.082,ND,28
2020/02/18,05:20,0.095,ND,30
2020/02/18,05:30,0.091,ND,30
2020/02/18,05:40,0.084,ND,31
2020/02/18,05:50,0.085,ND,33
2020/02/18,06:00,0.096,ND,34
2020/02/18,06:10,0.11,ND,36
2020/02/18,06:20,0.13,ND,32
2020/02/18,06:30,0.14,ND,31
2020/02/18,06:40,0.14,ND,30
2020/02/18,06:50,0.15,ND,30
2020/02/18,07:00,0.14,ND,28
2020/02/18,07:10,0.14,ND,25
2020/02/18,07:20,0.13,ND,26
2020/02/18,07:30,0.12,ND,25
2020/02/18,07:40,0.12,ND,24
2020/02/18,07:50,0.11,ND,23
2020/02/18,08:00,0.12,ND,24
2020/02/18,08:10,0.11,ND,23
2020/02/18,08:20,0.11,ND,25
2020/02/18,08:30,0.11,ND,24
2020/02/18,08:40,0.097,ND,22
2020/02/18,08:50,0.11,ND,20
2020/02/18,09:00,0.12,ND,22
2020/02/18,09:10,0.12,ND,23
2020/02/18,09:20,0.16,ND,23
2020/02/18,09:30,0.16,ND,24
2020/02/18,09:40,0.14,ND,26
2020/02/18,09:50,0.13,ND,28
2020/02/18,10:00,0.13,ND,27
2020/02/18,10:10,0.12,ND,28
2020/02/18,10:20,0.12,ND,28
2020/02/18,10:30,0.12,ND,25
2020/02/18,10:40,0.12,ND,25
2020/02/18,10:50,0.15,ND,22
2020/02/18,11:00,0.15,ND,22
2020/02/18,11:10,0.15,ND,23
2020/02/18,11:20,0.17,ND,24
2020/02/18,11:30,0.17,ND,28
2020/02/18,11:40,0.16,ND,31
2020/02/18,11:50,0.14,ND,35
2020/02/18,12:00,0.14,ND,35
2020/02/18,12:10,0.15,ND,32
2020/02/18,12:20,0.15,ND,31
2020/02/18,12:30,0.15,ND,29
2020/02/18,12:40,0.18,ND,26
2020/02/18,12:50,0.21,ND,28
2020/02/18,13:00,0.22,ND,25
2020/02/18,13:10,0.24,ND,29
2020/02/18,13:20,0.25,ND,28
2020/02/18,13:30,0.27,ND,27
2020/02/18,13:40,0.27,ND,26
2020/02/18,13:50,0.28,ND,21
2020/02/18,14:00,0.29,ND,24
2020/02/18,14:10,0.28,ND,24
2020/02/18,14:20,0.29,ND,27
2020/02/18,14:30,0.29,ND,30
2020/02/18,14:40,0.29,ND,30
2020/02/18,14:50,0.29,ND,29
2020/02/18,15:00,0.30,ND,27
2020/02/18,15:10,0.32,ND,24
2020/02/18,15:20,0.30,ND,20
2020/02/18,15:30,0.34,ND,22
2020/02/18,15:40,0.34,ND,22
2020/02/18,15:50,0.35,ND,25
2020/02/18,16:00,0.35,ND,24
2020/02/18,16:10,0.35,ND,24
2020/02/18,16:20,0.37,ND,27
2020/02/18,16:30,0.35,ND,26
2020/02/18,16:40,0.35,ND,27
2020/02/18,16:50,0.35,ND,27
2020/02/18,17:00,0.35,ND,28
2020/02/18,17:10,0.34,ND,30
2020/02/18,17:20,0.33,ND,30
2020/02/18,17:30,0.34,ND,28
2020/02/18,17:40,0.30,ND,27
2020/02/18,17:50,0.29,ND,28
2020/02/18,18:00,0.28,ND,30
2020/02/18,18:10,0.29,ND,27
2020/02/18,18:20,0.30,ND,27
2020/02/18,18:30,0.28,ND,27
2020/02/18,18:40,0.29,ND,28
2020/02/18,18:50,0.30,ND,26
2020/02/18,19:00,0.31,ND,28
2020/02/18,19:10,0.30,ND,28
2020/02/18,19:20,0.29,ND,31
2020/02/18,19:30,0.29,ND,32
2020/02/18,19:40,0.30,ND,30
2020/02/18,19:50,0.30,ND,32
2020/02/18,20:00,0.31,ND,30
2020/02/18,20:10,0.30,ND,28
2020/02/18,20:20,0.31,ND,26
2020/02/18,20:30,0.31,ND,26
2020/02/18,20:40,0.30,ND,28
2020/02/18,20:50,0.30,ND,25
2020/02/18,21:00,0.28,ND,24
2020/02/18,21:10,0.27,ND,26
2020/02/18,21:20,0.25,ND,23
2020/02/18,21:30,0.27,ND,22
2020/02/18,21:40,0.23,ND,22
2020/02/18,21:50,0.21,ND,24
2020/02/18,22:00,0.22,ND,24
2020/02/18,22:10,0.21,ND,24
2020/02/18,22:20,0.21,ND,25
2020/02/18,22:30,0.19,ND,25
2020/02/18,22:40,0.19,ND,26
2020/02/18,22:50,0.19,ND,24
2020/02/18,23:00,0.18,ND,27
2020/02/18,23:10,0.18,ND,28
2020/02/18,23:20,0.19,ND,30
2020/02/18,23:30,0.20,ND,31
2020/02/18,23:40,0.19,ND,32
2020/02/18,23:50,0.19,ND,31
